Погода в Апаране

Армения     40°35′27″N   44°21′27″E
темп.,
°C
ветер,
м/с
пор.,
м/с
влажн.,
%
обл.,
%
осадки,
мм/ч
давл.,
гПа
погр.,
м
18 мая, вт
вт1801:00+5з35651 0.1 101378
04:00+4зюз33650 0.1 101333
07:00+5зюз35632 0.0 1013206
10:00+9юз584693 0.0 10121739
13:00+11юз8104787 0.1 10132363
16:00+12зюз7104431 0.3 10122360
19:00+11зсз365329 0.0 10131278
22:00+7зсз22550 0.0 101514
19 мая, ср
ср1901:00+6зюз22585 0.0 101618
04:00+6юз33600 0.0 101530
07:00+7юз33600 0.0 101657
10:00+13ююз36465 0.0 10141238
13:00+15ююз35425 0.0 10131836
16:00+15юз584211 0.0 10132069
19:00+12зюз486390 0.9 1014759
22:00+8зсз336831 1.4 101620
20 мая, чт
чт2001:00+7з33690 0.3 101732
04:00+6з33640 0.3 101820
07:00+8з226424 0.0 101830
10:00+13ююз25370 0.0 10171289
13:00+16ююз35350 0.0 10171814
16:00+16юз24320 0.0 10161796
19:00+15в11500 0.0 101695
22:00+10юз11520 0.0 101913
21 мая, пт
пт2101:00+10ююз12520 0.0 101916
04:00+9ююз22540 0.0 101914
07:00+11ю22590 0.0 101927
10:00+16ю34420 0.0 10181230
13:00+18ю45340 0.0 10171674
16:00+18ююз36310 0.0 10162134
19:00+17ююз22490 0.0 101664
22:00+11зсз01470 0.0 101813
22 мая, сб
сб2201:00+11з114651 0.0 101713
04:00+11ююв12535 0.1 101614
07:00+12ю226146 0.0 101628
10:00+17юв4643100 0.0 10141306
13:00+18ююв4638100 0.0 10131604
16:00+18ю3540100 0.0 10111717
19:00+14ююв225296 0.1 101340
22:00+11ююз225834 0.2 101517